GEFSGL_500_meanwind_114.txt.gz
Wind_Speed
28 29 28 28 28 28 28 28 28 27 27 27 27 27 26 25 26 26 25 25 25 25 25 25 25 25 25 25 26 27 26 27 28 28 28 28 29 29 29 29 29 28 29
30 30 30 29 29 29 28 28 27 26 26 26 26 25 25 25 25 25 24 23 23 23 22 22 22 23 23 24 24 24 25 26 27 26 26 27 26 27 27 27 26 26 27
30 30 30 29 29 29 28 27 27 26 26 25 25 24 23 24 23 23 22 21 21 20 20 20 20 20 21 21 22 23 24 24 23 22 21 21 21 23 23 24 24 25 26
29 28 28 28 27 27 27 26 26 25 25 24 23 22 21 21 21 21 20 19 18 18 18 17 17 18 19 19 19 19 20 20 18 18 17 18 19 20 20 22 23 23 23
28 27 26 26 26 25 25 24 23 23 22 21 20 19 19 19 19 18 17 16 16 15 15 15 15 15 15 15 14 15 15 16 16 16 16 17 17 18 19 20 21 21 21
26 25 25 25 24 23 23 23 22 21 20 19 18 18 17 16 16 15 15 15 14 14 14 14 13 13 13 12 12 12 13 13 14 14 15 15 17 18 18 18 18 19 20
24 23 23 22 22 22 21 21 20 19 18 17 16 15 15 14 13 13 12 12 12 12 12 11 11 12 12 11 11 12 12 12 13 13 14 15 16 16 17 17 18 18 18
21 20 20 19 18 18 18 17 16 16 16 15 15 14 13 11 11 10 10 11 10 9 9 9 9 9 9 10 10 11 11 11 11 12 13 14 14 15 15 15 16 17 17
18 17 16 15 14 13 12 12 12 12 12 12 12 11 10 10 9 9 9 8 8 7 7 7 6 7 7 9 9 9 9 10 10 10 11 11 12 12 13 14 14 14 15
15 14 13 11 10 8 8 8 8 8 8 9 10 10 10 9 9 8 8 7 6 6 6 7 6 7 7 7 7 7 8 8 8 9 9 10 10 11 11 11 12 12 12
12 10 9 7 5 5 5 5 6 6 7 8 8 9 9 8 8 7 7 7 6 6 5 5 5 5 5 5 6 6 6 7 7 7 7 8 8 8 8 8 8 8 9
8 6 5 4 3 3 3 4 5 6 7 7 7 7 7 7 7 7 7 7 6 5 4 4 4 4 4 4 4 4 4 4 4 4 4 5 5 5 5 5 6 6 7
4 3 3 3 3 4 4 4 5 6 7 7 7 6 5 5 6 6 5 5 5 4 3 3 3 3 3 3 2 1 1 1 2 2 3 3 3 4 4 5 5 6 6
0 2 3 4 5 5 5 6 6 6 6 6 5 5 5 6 5 5 5 4 4 3 3 3 3 4 3 3 2 2 1 1 1 2 2 3 3 4 5 5 6 6 7
3 4 5 6 6 6 6 6 6 6 6 6 6 6 7 7 7 6 6 5 5 5 5 5 5 5 5 5 4 4 4 4 4 5 5 5 5 5 5 6 6 7 7
6 7 7 7 7 7 8 8 7 7 7 7 7 8 8 8 8 7 6 6 7 7 8 8 8 7 7 7 7 7 7 7 7 6 6 6 6 7 7 7 7 8 9
9 9 10 10 9 9 9 9 9 9 10 10 10 10 10 9 9 9 9 10 10 10 10 10 10 10 10 10 9 9 8 8 7 7 7 7 7 7 7 8 8 9 10
11 12 12 11 11 11 11 11 11 11 12 12 12 12 11 11 12 12 12 13 13 13 13 13 13 12 11 11 10 10 9 9 8 8 8 8 8 8 8 9 9 10 11
12 12 12 12 12 12 13 13 14 14 15 15 15 14 14 14 14 14 14 14 15 15 14 14 13 13 12 12 11 11 10 10 10 9 9 9 9 9 9 10 10 11 11
13 13 13 13 13 14 14 15 16 17 17 16 16 16 16 16 16 16 15 15 15 15 15 14 13 13 13 12 12 12 11 11 11 10 10 10 10 11 11 11 11 12 12
14 14 14 14 14 14 15 17 17 17 17 17 17 17 17 17 17 17 16 16 16 15 15 14 14 13 13 13 13 12 12 12 11 11 11 11 11 11 11 12 12 13 13
15 14 15 15 15 16 17 17 17 18 18 18 18 18 18 18 18 17 17 16 16 15 14 14 14 14 13 13 13 12 12 12 12 12 12 12 12 12 12 13 13 14 15
15 15 15 16 17 18 18 18 18 18 18 18 18 18 18 17 17 16 16 16 15 15 14 14 14 14 13 13 12 12 12 12 12 12 12 12 12 13 13 14 15 16 17
16 16 17 17 18 18 18 18 18 18 18 17 17 17 17 16 16 16 16 16 15 15 15 14 14 13 13 12 12 12 12 12 12 12 12 12 13 14 15 15 16 17 18
16 16 17 17 17 17 17 17 16 16 16 16 16 16 16 15 15 15 15 15 15 14 14 13 13 12 12 11 11 11 11 11 12 12 12 13 14 15 16 17 18 20 21
15 15 16 16 16 16 16 15 15 15 15 15 15 15 15 14 14 14 14 13 13 13 12 12 11 11 10 10 10 10 10 10 11 12 13 14 16 17 18 19 20 22 24

GEFSGL_500_meanwind_120.txt.gz
Wind_Speed
28 28 28 28 28 29 29 29 29 28 28 29 29 29 29 29 29 29 29 28 28 27 27 27 27 27 27 27 28 29 29 29 30 30 29 29 30 29 29 31 32 32 32
28 29 29 29 29 29 29 30 30 30 30 30 30 30 29 29 29 29 28 28 27 27 27 26 26 26 26 27 28 28 28 28 28 29 29 29 29 28 29 30 31 31 31
28 29 29 30 30 30 30 30 30 29 29 29 29 29 28 28 28 28 27 26 25 25 25 25 25 25 24 25 25 25 25 25 26 27 28 28 28 28 27 27 28 29 28
28 28 28 28 28 28 28 28 27 27 27 27 27 26 26 25 25 25 25 24 24 23 23 23 22 22 22 22 22 22 22 23 24 25 25 25 25 25 25 26 26 26 25
26 26 26 26 26 25 25 25 25 24 24 24 24 24 23 23 23 23 22 22 22 22 21 21 21 20 20 20 19 19 19 20 20 21 21 20 20 21 22 23 22 22 24
25 25 24 24 24 23 23 23 23 22 22 22 21 21 21 20 20 20 19 19 19 19 19 19 18 18 17 17 17 17 17 18 17 17 18 18 18 18 19 19 20 21 22
24 24 23 23 23 22 21 21 20 20 19 19 18 18 17 17 16 16 16 16 16 15 15 16 15 15 15 15 15 15 15 14 14 14 14 14 14 15 16 17 18 19 19
23 22 22 22 20 19 19 18 17 17 17 17 16 15 15 15 15 14 13 13 13 13 13 12 12 12 12 12 12 11 11 11 12 12 12 13 13 13 14 14 14 15 15
21 20 19 18 17 16 15 14 14 14 14 14 14 13 13 13 13 14 12 12 12 11 10 10 10 10 10 10 10 9 9 9 10 10 10 10 10 11 11 11 11 11 10
18 17 16 15 14 12 11 10 10 10 10 10 10 11 10 11 11 11 10 10 10 9 9 8 7 7 8 9 8 7 7 7 8 8 8 7 8 7 7 6 7 7 8
14 13 12 10 9 8 7 7 6 6 7 8 8 9 9 9 9 9 9 7 7 8 7 6 5 5 6 6 6 6 6 6 5 5 5 4 3 3 3 4 5 5 6
10 9 8 6 5 5 5 4 4 5 5 6 7 7 7 7 7 7 7 7 6 6 6 6 5 4 4 4 4 4 3 3 2 1 1 1 1 2 2 3 3 4 5
7 5 4 3 3 3 3 4 4 4 4 5 5 6 6 6 6 7 6 6 6 5 5 5 4 4 4 3 3 2 2 1 2 2 2 1 1 2 2 3 4 5 6
3 2 2 2 3 3 3 3 3 4 5 5 5 6 6 7 7 7 7 7 7 7 6 6 5 5 5 5 4 3 3 4 4 4 4 4 4 4 4 4 4 5 6
1 2 2 3 4 4 5 5 5 5 5 6 6 7 6 7 8 8 8 8 8 7 7 6 6 6 6 5 5 6 6 6 6 6 6 6 5 5 5 5 6 6 7
3 4 5 5 6 6 6 6 6 7 7 8 8 8 8 9 10 10 10 9 9 8 8 8 8 8 7 8 8 8 8 8 7 7 7 6 6 6 6 6 6 7 8
5 5 5 6 7 8 8 8 8 8 9 9 10 10 11 11 11 11 11 10 10 10 10 10 10 10 10 10 10 9 9 9 8 8 7 6 6 6 6 7 7 8 9
7 7 7 9 10 10 9 9 9 10 10 11 12 12 12 12 12 12 12 12 12 12 12 12 12 12 12 11 11 11 10 9 8 8 7 7 7 7 8 8 9 9 10
8 9 9 10 11 11 11 11 11 11 11 12 13 13 13 13 13 13 13 14 14 14 14 13 13 13 13 12 12 11 10 10 9 9 8 8 8 8 9 9 9 10 11
10 10 11 11 12 12 12 12 12 13 13 14 14 14 13 13 13 14 15 15 15 14 14 13 13 13 13 12 12 11 10 10 9 9 9 9 9 9 10 10 11 12 13
12 13 14 14 13 13 13 14 15 15 15 15 15 14 15 15 15 16 16 15 14 14 13 13 13 13 13 12 11 10 10 9 9 9 9 9 9 10 10 11 12 13 14
13 14 14 14 14 14 14 15 16 16 16 15 15 15 15 16 16 15 15 15 14 14 13 13 13 12 12 11 10 9 9 9 9 8 9 9 10 10 11 12 13 15 16
13 13 13 13 13 14 14 14 15 15 15 15 14 15 15 15 15 14 14 14 14 13 12 12 11 11 10 10 9 9 8 8 8 8 9 9 10 11 12 14 15 17 18
12 12 12 13 13 13 14 14 14 14 14 14 14 14 14 13 13 13 13 12 12 11 11 10 10 9 8 8 8 7 7 7 8 8 9 10 11 13 14 16 18 19 21
12 12 12 12 13 13 13 13 13 13 13 13 13 13 13 12 12 11 11 11 11 10 10 9 8 7 7 7 6 6 6 6 7 8 10 11 13 14 16 18 20 22 24
11 11 11 11 11 12 12 12 12 12 11 11 11 11 11 10 10 10 9 9 9 8 7 7 6 5 5 4 4 5 5 7 8 9 11 13 15 17 19 21 23 24 26

GEFSGL_500_meanwind_126.txt.gz
Wind_Speed
27 27 27 27 28 29 29 29 29 30 30 31 31 31 32 32 32 31 31 31 31 30 30 29 29 28 28 28 27 27 27 28 28 28 28 28 29 29 29 29 30 30 29
27 27 27 28 28 29 29 29 29 30 30 31 31 31 32 32 32 32 31 31 31 30 30 30 29 29 28 27 26 26 26 26 26 26 27 27 27 27 26 27 28 28 27
27 27 27 27 27 28 28 29 29 28 28 29 29 30 30 31 31 30 30 29 29 29 29 29 28 27 26 25 25 24 24 24 25 25 25 24 25 25 26 25 25 25 25
26 26 27 27 28 27 27 27 27 26 26 27 28 28 28 28 28 28 28 28 27 26 26 25 25 25 24 24 23 22 22 22 22 23 23 23 23 23 24 24 23 22 21
27 27 27 27 27 26 26 26 25 25 25 26 25 25 25 26 26 25 25 25 24 24 23 22 22 21 21 21 21 21 20 20 20 21 21 21 21 21 21 21 20 20 20
26 26 26 26 26 25 24 24 24 24 24 23 22 22 22 23 22 22 21 22 22 21 21 19 18 18 18 18 18 18 18 18 18 18 17 17 16 16 16 16 16 16 16
25 25 25 25 24 23 22 22 22 22 21 20 20 20 20 20 19 19 19 18 18 18 17 16 15 16 16 16 15 15 15 15 15 15 15 13 12 12 13 13 13 12 12
23 23 23 22 21 20 20 19 20 20 19 19 19 18 18 17 17 16 16 15 14 14 14 13 12 12 12 12 12 13 13 13 12 12 12 11 11 10 10 10 10 10 10
21 21 20 20 19 18 17 17 17 17 17 17 17 17 16 16 15 14 13 12 12 12 11 11 10 10 10 10 10 10 10 9 9 9 8 8 8 7 7 6 6 6 6
18 18 18 17 17 16 16 15 15 14 14 14 13 13 12 12 12 12 11 9 9 9 9 9 9 8 7 7 7 7 7 7 6 6 6 6 5 4 4 3 3 3 3
16 16 15 15 14 14 14 14 13 12 12 11 10 10 10 9 9 9 8 8 8 8 8 8 7 7 7 6 6 5 6 5 4 4 4 3 3 3 2 2 1 1 2
13 13 12 12 12 11 10 10 10 10 9 8 8 8 8 8 7 8 8 7 6 7 7 7 6 6 6 5 6 5 5 5 4 3 3 3 2 2 2 1 0 1 2
10 9 9 9 8 8 7 7 7 6 6 6 7 7 7 7 7 7 7 7 7 7 6 7 6 6 6 6 6 6 5 5 4 4 4 4 4 4 3 2 2 2 2
7 6 6 5 5 5 4 5 5 5 6 6 6 7 8 8 8 7 7 8 8 8 8 8 9 9 8 8 7 6 6 6 6 6 6 6 6 6 5 4 4 4 4
3 3 3 2 2 3 3 3 4 5 6 6 7 7 7 8 9 9 9 9 9 9 10 10 10 9 9 8 8 8 8 8 8 7 8 8 7 6 5 5 5 5 5
1 1 1 2 3 3 4 4 5 5 6 7 7 7 7 8 9 10 11 11 12 11 11 11 10 10 9 9 9 9 8 8 8 8 8 7 7 6 6 6 6 6 6
3 3 4 4 4 5 5 6 6 7 7 7 7 8 9 10 11 12 13 13 13 12 12 11 11 11 10 10 9 9 9 9 9 8 8 7 7 7 6 6 6 7 7
5 5 6 6 6 6 6 7 8 8 9 9 9 10 12 12 13 13 13 13 13 13 12 12 11 11 10 10 10 10 10 10 9 8 8 7 7 7 7 7 7 7 8
7 7 7 7 7 7 7 8 9 9 9 10 11 11 12 12 12 13 13 13 13 12 12 12 12 11 11 11 11 11 10 10 9 8 8 7 7 7 7 7 8 9 10
6 7 7 8 9 9 8 9 10 10 10 11 11 12 12 12 13 13 13 13 13 13 13 13 12 12 11 11 11 10 10 9 8 8 7 6 6 6 7 7 8 10 11
8 9 9 10 10 10 10 11 11 11 11 12 13 13 13 13 13 14 14 14 14 13 13 12 12 11 11 11 10 10 9 8 7 7 6 5 5 6 7 8 9 11 12
11 11 11 12 12 11 11 11 12 13 13 13 14 14 13 13 14 14 14 14 14 13 12 12 11 11 10 9 9 8 7 6 6 5 5 5 5 6 7 9 10 12 13
12 13 12 12 12 12 12 12 14 14 14 14 14 14 14 14 14 13 13 13 12 11 11 10 10 10 9 8 7 6 5 4 3 3 3 5 6 8 9 11 12 13 15
12 12 12 12 12 12 12 12 13 13 13 13 13 13 13 13 13 12 12 11 10 10 9 9 8 7 7 6 5 4 3 2 2 3 5 6 8 9 11 13 14 16 18
11 11 11 11 11 11 11 12 11 11 11 11 11 11 11 11 11 10 10 9 9 8 8 7 6 5 4 3 2 1 1 2 3 5 7 8 10 12 13 15 17 19 21
9 9 9 10 10 10 10 10 9 9 10 10 10 10 10 9 9 9 8 8 7 7 6 5 4 3 2 1 1 1 3 4 6 8 9 11 13 14 16 18 20 22 23

GEFSGL_500_meanwind_132.txt.gz
Wind_Speed
27 27 27 27 27 27 26 25 25 25 25 25 25 25 26 26 27 28 28 29 29 29 29 28 28 28 27 27 27 26 25 25 25 24 23 23 23 24 24 24 24 24 24
27 27 27 27 27 27 26 26 26 26 25 25 25 25 26 26 26 26 27 28 28 28 28 28 28 27 27 27 26 25 25 24 24 23 23 22 22 22 22 22 22 22 22
28 27 27 27 27 26 26 26 26 25 26 26 26 26 25 26 26 26 26 26 26 26 26 26 26 26 25 25 25 24 24 23 23 23 22 22 22 21 21 21 20 20 21
28 28 27 27 26 27 27 26 25 25 25 25 25 25 25 25 25 25 25 24 24 24 24 23 24 24 24 24 23 23 23 22 22 21 21 20 20 20 19 19 19 19 19
28 27 27 26 26 26 26 25 25 24 24 24 24 23 23 23 23 23 23 22 22 22 22 22 22 22 22 22 22 21 21 21 20 20 20 19 19 18 18 18 18 17 17
27 27 26 25 25 25 25 24 24 23 23 24 22 22 21 21 21 20 20 20 20 21 21 22 21 20 20 19 19 19 19 19 18 18 18 18 17 17 16 16 14 13 13
27 26 26 25 25 25 25 24 24 23 23 22 21 21 20 20 19 19 19 18 18 19 19 18 18 17 17 16 16 16 16 16 16 15 15 14 14 13 13 12 11 10 10
24 25 25 25 24 24 23 23 23 22 21 20 19 19 19 19 19 18 17 16 15 16 15 14 15 14 14 14 14 14 14 13 13 13 13 13 12 11 10 9 8 7 7
22 21 22 22 22 21 21 20 19 19 19 18 17 17 17 17 17 16 15 14 13 12 11 11 11 11 11 12 12 11 10 11 12 11 10 9 8 8 7 6 5 5 5
20 20 19 18 18 18 17 16 16 16 16 16 15 15 14 14 13 13 12 12 11 9 9 9 9 9 9 9 9 9 8 8 9 8 7 7 6 5 5 4 4 4 3
18 18 17 16 16 15 14 14 13 13 14 13 13 13 12 11 10 9 9 8 8 8 8 7 7 7 7 7 7 7 6 6 6 5 5 5 5 4 4 3 3 3 3
15 15 14 14 13 12 12 11 11 11 11 10 10 10 9 8 7 6 6 6 6 7 7 6 5 6 6 6 6 6 5 5 5 5 5 4 4 4 3 2 2 2 1
14 13 12 11 10 10 9 9 9 8 8 7 7 7 7 6 6 5 5 5 4 5 6 6 6 6 6 6 6 7 6 6 5 5 5 4 4 3 3 2 2 1 0
11 11 10 9 8 8 8 8 7 6 5 4 4 4 4 4 4 4 4 5 5 5 5 5 6 6 6 6 6 7 7 6 6 5 5 4 3 3 3 3 2 1 1
9 9 8 7 6 5 5 4 4 4 3 2 2 2 4 4 5 5 5 5 6 6 6 7 7 7 7 7 7 7 7 7 7 6 6 5 4 4 4 4 3 3 3
7 6 5 4 3 2 2 2 1 0 0 1 2 2 4 5 5 6 7 6 6 7 7 8 8 8 8 8 8 8 8 8 7 7 6 5 5 5 5 4 4 4 3
5 4 3 2 1 1 1 1 2 2 2 2 3 4 5 6 6 7 7 7 8 8 9 9 10 9 9 9 9 8 8 8 7 6 6 5 5 5 4 4 4 4 4
4 3 3 3 3 3 3 3 3 3 4 5 6 7 7 7 7 8 8 8 9 10 10 10 10 9 9 8 8 8 8 7 7 6 6 6 5 5 4 4 4 4 5
4 4 4 4 4 4 4 4 5 6 6 8 9 9 9 8 9 9 9 9 10 11 11 10 9 9 8 8 8 8 7 7 7 7 6 5 4 4 3 3 4 4 5
5 5 5 5 5 5 6 6 7 8 8 9 9 9 9 8 9 9 9 9 10 10 10 10 9 8 9 8 8 8 7 7 6 5 4 3 3 2 2 3 4 5 7
7 7 7 7 7 7 7 7 8 9 9 9 9 9 9 8 9 9 9 10 10 10 10 9 8 9 8 8 8 7 6 5 4 3 2 1 2 2 3 5 6 8 9
9 9 9 9 9 8 8 8 9 9 9 9 10 9 9 9 9 9 10 10 9 9 8 8 8 8 8 7 6 5 4 3 2 1 1 2 3 4 6 7 8 10 11
10 10 10 10 9 9 9 9 9 10 10 10 10 9 9 9 9 9 8 8 8 7 6 7 7 6 6 5 3 2 2 1 0 1 3 4 5 6 7 9 10 12 13
10 10 10 10 10 10 10 10 10 9 9 9 9 8 8 8 8 7 7 6 6 6 6 6 5 4 3 3 2 2 2 2 3 4 6 7 8 9 10 12 13 15 16
9 9 9 9 9 9 8 8 8 8 8 8 7 7 6 6 6 6 5 5 5 5 4 4 4 3 3 3 3 4 5 5 6 8 9 10 11 12 14 15 17 18 19
7 7 7 7 7 7 7 7 7 7 6 6 6 5 5 5 5 4 4 4 4 4 3 3 3 4 4 5 6 7 8 9 10 11 12 13 14 16 17 19 20 21 22

GEFSGL_500_meanwind_138.txt.gz
Wind_Speed
26 26 25 25 24 24 24 24 24 23 22 22 21 20 21 21 22 21 21 21 21 22 23 24 24 25 25 25 25 24 24 24 23 23 22 22 22 21 20 20 21 21 21
25 25 25 25 25 25 24 24 24 23 22 21 21 21 21 22 22 21 21 21 21 21 22 22 23 23 23 23 23 24 24 24 24 22 22 21 20 20 19 19 20 20 20
24 24 24 25 25 24 24 24 23 23 22 21 21 21 21 21 21 20 20 20 21 21 21 22 22 22 22 22 22 22 23 23 23 22 22 21 20 20 20 19 19 19 19
24 24 24 24 24 23 23 23 22 22 21 21 21 21 21 20 20 19 19 19 19 19 19 20 21 21 21 21 21 21 21 22 22 21 21 21 20 20 19 18 18 17 17
25 25 25 24 23 23 23 22 21 20 20 20 20 21 20 20 19 18 18 18 18 18 18 18 18 19 19 20 20 20 20 20 20 20 20 20 19 19 18 17 16 17 17
23 23 23 23 22 22 21 21 21 21 21 21 20 20 20 19 18 18 17 17 18 17 17 17 17 17 17 18 18 18 18 18 18 18 18 18 18 17 16 16 15 15 15
22 21 22 22 21 20 21 21 21 20 20 20 20 20 19 19 18 17 17 17 16 15 14 14 14 15 15 15 15 16 17 17 17 17 16 17 16 15 15 14 13 13 13
19 20 20 20 19 19 19 19 19 19 19 19 19 19 18 17 17 16 15 14 13 13 13 12 12 13 13 13 14 13 14 14 14 14 14 13 13 12 12 12 12 11 11
18 18 18 18 17 17 17 16 16 17 17 17 16 16 15 14 14 13 13 13 12 12 11 11 11 11 11 11 11 11 11 11 11 11 11 11 11 11 10 10 10 10 10
17 17 17 16 16 15 14 14 14 14 13 13 13 12 12 11 11 11 11 11 11 10 10 10 9 10 10 10 9 9 9 9 9 9 9 9 9 9 9 9 8 9 9
14 14 14 13 13 12 12 13 12 11 10 10 9 9 9 9 9 9 9 9 9 8 8 8 8 8 8 8 8 8 8 8 7 7 8 8 8 8 8 8 7 7 7
12 12 11 11 11 10 11 10 10 9 8 7 7 7 7 7 7 7 7 8 8 7 7 7 8 7 7 7 7 7 8 8 7 7 7 7 7 7 7 6 6 6 6
11 10 9 9 9 9 8 8 7 7 7 7 6 6 6 6 5 6 6 6 6 7 6 6 7 6 6 7 7 8 8 8 7 7 7 7 7 7 6 6 5 5 5
9 9 8 8 8 7 6 5 5 6 6 6 5 5 5 5 5 5 4 4 4 5 7 7 6 6 7 7 8 8 8 8 7 6 6 6 6 6 5 5 5 5 5
7 7 6 6 5 5 4 3 3 4 4 4 4 5 5 5 4 4 4 4 5 5 6 6 6 8 8 8 8 8 8 7 7 7 7 7 6 6 5 5 5 5 5
6 5 5 5 4 3 3 3 3 2 1 2 3 4 4 4 4 4 5 5 5 6 6 7 7 8 8 9 8 8 8 8 8 7 7 7 6 5 4 4 4 4 4
6 6 5 4 3 3 2 2 1 0 1 2 3 3 4 4 5 5 6 7 7 7 8 7 7 8 9 9 9 8 8 8 8 7 7 6 5 5 4 4 4 4 4
6 6 5 4 3 3 2 2 2 3 4 5 5 5 4 5 6 7 7 7 7 8 8 7 8 8 9 9 8 8 7 7 7 7 6 5 5 4 3 3 3 3 4
6 6 5 5 4 4 4 4 4 5 6 6 5 5 6 6 7 8 8 7 7 8 8 8 8 8 8 8 8 7 6 6 6 6 5 4 4 3 3 3 4 4 5
8 7 7 6 6 5 5 5 6 6 6 6 6 7 7 8 8 8 7 7 7 7 7 8 8 8 8 8 7 6 6 6 6 6 5 4 3 3 4 4 5 6 7
9 9 8 8 7 6 6 6 6 7 7 7 8 8 8 8 8 7 7 6 7 8 8 8 8 8 7 7 6 6 6 6 6 5 4 4 4 5 5 6 7 8 9
10 10 9 9 8 8 7 7 7 7 7 7 7 7 7 7 6 6 6 7 7 7 7 7 7 6 6 6 5 6 5 5 5 5 5 5 6 7 8 9 10 11 12
10 10 10 9 9 9 8 7 7 7 7 6 6 6 6 5 5 5 6 6 6 6 5 5 5 5 5 5 6 5 5 5 6 6 7 7 8 9 11 11 12 13 14
9 9 9 8 8 8 7 7 6 6 6 5 5 5 5 5 4 4 5 5 5 5 4 4 5 5 6 6 6 7 7 8 8 9 9 10 11 12 13 14 15 16 17
8 8 8 7 7 7 6 6 6 5 5 4 4 4 4 4 3 4 4 4 4 4 5 5 6 6 7 7 8 8 9 10 11 11 12 13 14 15 16 17 18 19 21
6 6 6 6 6 5 5 4 4 3 3 2 2 2 2 2 2 3 4 4 5 5 5 6 7 7 8 9 10 11 12 13 14 14 15 16 17 18 19 20 22 23 25

GEFSGL_500_meanwind_144.txt.gz
Wind_Speed
25 25 25 25 25 26 27 27 27 27 27 26 26 26 26 26 26 25 24 24 23 24 23 24 24 24 25 25 26 26 27 27 27 26 26 27 26 26 25 26 25 25 25
24 24 25 25 25 26 26 27 26 26 26 26 25 25 26 25 25 24 24 24 24 24 24 23 24 24 24 24 25 25 26 26 26 26 26 26 26 25 25 26 25 24 24
24 24 25 26 26 26 26 26 25 25 25 25 25 25 25 24 24 24 24 23 24 23 23 23 23 23 23 24 24 23 24 24 24 25 25 25 25 25 25 25 24 24 23
24 24 25 25 25 25 25 25 24 23 23 23 23 23 23 23 23 23 23 22 22 23 23 22 22 21 22 23 22 22 23 23 23 24 24 24 25 25 25 24 23 23 22
23 24 23 23 23 23 23 24 23 23 22 22 21 21 21 22 22 21 21 21 21 21 21 22 21 21 22 23 23 23 22 22 23 23 23 23 23 23 23 22 22 21 20
22 23 23 23 23 23 23 23 22 22 21 21 21 21 21 21 20 20 20 20 20 20 20 20 20 21 22 22 22 22 22 22 21 21 21 21 22 22 22 22 21 20 19
21 22 21 21 22 22 22 21 21 20 20 20 21 21 20 20 19 19 19 18 18 18 18 18 19 19 18 19 19 19 19 19 19 19 19 20 20 20 20 20 20 19 18
19 19 19 19 19 20 19 19 20 20 20 20 19 19 19 19 18 18 18 17 17 17 17 17 17 17 17 17 17 17 17 17 17 17 17 18 18 18 18 17 17 17 16
18 17 17 18 17 17 18 18 18 18 18 18 18 17 17 16 16 16 16 16 16 15 15 15 15 16 15 15 16 16 16 16 16 16 16 16 16 15 15 15 14 14 14
17 17 16 16 15 15 15 16 16 16 17 17 16 15 14 14 14 13 13 14 13 13 13 13 13 12 13 13 13 13 13 13 13 13 12 12 12 12 12 12 12 12 12
15 15 15 14 14 14 14 14 14 14 14 14 13 12 12 12 12 12 12 11 11 11 11 12 11 11 10 10 10 10 11 11 11 10 10 10 10 10 10 10 11 10 10
12 13 12 12 12 12 11 11 12 11 11 10 10 10 10 9 10 10 10 9 9 9 9 9 9 9 9 9 9 9 9 9 9 9 10 10 10 10 10 10 10 9 9
10 9 9 10 9 10 9 10 10 9 9 8 8 8 9 8 8 8 8 8 8 7 7 7 8 8 8 8 8 8 8 8 8 9 9 9 9 10 9 9 9 8 8
8 8 8 8 8 8 8 8 8 8 8 8 7 7 7 7 7 7 7 7 7 7 6 6 6 6 7 7 6 6 6 7 7 7 7 8 8 8 8 8 8 7 7
7 7 8 8 7 7 7 7 7 7 6 6 6 6 6 6 5 5 5 5 5 5 5 4 5 5 6 6 6 6 5 5 6 6 7 7 7 7 8 7 7 7 6
6 6 7 7 7 7 7 7 6 6 5 5 5 4 4 5 5 5 4 3 3 4 4 4 3 3 4 5 5 6 5 5 6 6 6 6 6 6 6 6 6 7 7
6 6 7 6 6 7 6 6 5 5 4 4 4 3 2 2 2 3 3 3 3 3 2 3 3 3 4 4 5 6 6 6 6 5 5 5 5 5 5 6 6 6 6
7 7 7 7 7 7 6 6 5 5 4 4 4 3 1 1 1 1 1 2 2 3 2 2 3 3 4 4 4 5 5 5 5 5 5 4 5 5 5 5 6 6 7
7 7 7 7 7 7 7 7 6 6 5 5 4 3 2 2 1 1 1 1 2 2 2 2 2 3 4 4 4 4 4 5 5 5 5 4 5 5 6 7 8 8 9
7 7 8 7 8 8 8 8 7 7 6 5 4 4 3 3 2 2 2 1 1 2 1 1 1 2 3 4 4 5 5 5 5 5 6 6 6 7 8 9 10 10 11
8 8 8 8 8 9 8 8 8 8 7 6 5 4 4 3 2 2 1 1 0 0 1 1 2 2 3 4 5 5 5 5 6 7 7 8 8 9 10 11 12 13 14
8 8 8 8 8 9 9 8 7 7 7 6 6 5 4 4 2 2 2 2 1 1 2 2 3 3 4 5 6 6 6 7 8 8 9 10 11 12 13 13 15 16 17
8 8 8 9 9 9 8 8 7 7 7 6 6 5 4 4 3 3 3 3 2 2 2 3 3 4 5 5 6 7 8 9 9 10 11 12 13 14 15 16 17 18 20
8 8 8 9 9 9 8 8 7 7 6 6 5 5 4 4 4 4 4 3 3 3 3 4 5 5 6 6 8 9 10 11 12 13 14 15 16 17 18 19 20 21 22
8 8 8 8 8 8 8 8 7 6 6 6 6 6 5 5 5 5 4 4 4 5 6 6 7 8 9 10 10 11 13 14 15 16 17 18 19 20 21 22 23 24 25
8 8 8 8 8 8 8 8 7 7 7 7 7 7 7 6 6 6 7 7 7 8 8 9 10 11 12 12 13 14 16 17 18 19 20 20 21 22 23 24 25 26 27

GEFSGL_500_meanwind_150.txt.gz
Wind_Speed
27 27 27 26 27 27 27 27 27 27 27 27 27 27 27 26 26 25 25 25 25 25 25 25 25 25 25 25 25 25 26 26 26 25 25 26 26 26 25 24 24 24 24
28 28 28 27 27 26 26 26 26 26 26 26 26 26 25 25 25 24 24 24 24 23 24 24 23 23 23 23 23 23 24 24 24 24 24 24 24 24 24 24 23 23 23
27 26 25 25 25 24 24 25 25 25 25 24 24 24 24 24 23 23 23 23 23 23 23 23 22 22 21 21 22 22 22 22 23 23 23 23 23 23 23 23 23 23 23
23 23 24 24 24 24 24 24 24 24 23 23 23 23 23 23 22 22 22 22 22 22 21 21 21 21 21 21 21 21 21 22 22 22 22 22 22 22 22 23 23 23 23
21 21 22 22 23 24 24 24 24 23 23 23 23 22 22 22 22 22 21 21 21 20 20 20 20 20 20 21 21 21 21 21 21 21 21 21 21 21 21 22 22 22 22
19 19 20 20 21 22 22 22 22 22 22 22 22 22 21 21 21 21 20 20 19 19 19 19 19 19 20 20 21 21 20 20 21 20 20 20 21 20 20 21 21 21 20
17 18 18 18 19 19 20 20 20 21 21 21 22 21 21 21 20 20 19 19 18 17 18 18 19 19 19 19 20 20 20 20 20 20 20 21 20 19 19 19 20 20 20
16 17 17 17 17 17 18 18 19 19 20 19 19 20 20 20 19 17 17 17 17 17 17 17 17 17 17 17 18 18 18 18 19 19 19 19 18 18 17 17 17 18 18
16 16 16 16 16 16 17 16 17 17 17 17 17 17 17 17 17 16 16 16 16 15 15 15 14 14 15 15 16 16 15 16 16 16 16 16 16 16 16 16 16 16 16
14 14 14 13 14 14 15 15 14 14 14 14 14 14 15 15 15 15 15 15 14 14 14 13 13 14 14 14 13 13 14 14 15 15 15 15 15 15 14 14 14 14 14
12 12 12 12 12 12 13 13 12 12 12 13 12 12 13 13 13 13 13 13 12 12 12 12 11 12 12 11 11 12 12 12 13 14 14 14 14 13 12 12 12 12 13
9 10 10 10 11 11 11 11 11 10 10 10 10 11 11 11 10 11 11 11 11 10 10 10 9 9 9 9 9 10 10 10 11 11 11 11 11 11 11 11 11 12 12
8 8 9 9 10 10 10 10 10 9 9 9 9 9 9 9 9 8 9 9 9 9 9 9 8 8 8 8 8 8 8 8 8 9 9 9 10 10 10 11 11 12 12
7 7 7 7 8 8 8 8 8 8 8 7 7 7 7 7 7 7 7 7 8 7 7 7 7 6 6 6 6 6 6 7 7 7 8 9 9 10 10 10 11 11 12
6 7 7 7 8 8 8 8 7 7 7 7 6 6 5 5 5 5 4 4 5 6 6 6 6 5 5 5 5 5 6 6 7 7 7 8 9 9 9 9 10 10 11
6 6 6 7 7 7 7 7 7 7 6 6 5 4 4 5 4 4 3 2 2 3 4 4 5 5 5 5 5 5 5 5 6 7 7 8 8 8 9 9 9 9 10
6 6 6 7 7 7 7 7 7 7 7 7 5 4 4 4 3 2 2 1 1 2 2 3 3 4 4 4 4 5 5 5 6 6 7 7 7 8 8 8 9 9 10
6 6 7 7 7 7 7 7 7 7 7 7 6 5 5 4 2 2 1 1 0 1 2 2 3 4 4 4 4 5 5 6 7 7 7 8 8 8 8 9 9 10 10
7 7 6 6 6 7 7 7 7 7 7 7 7 6 6 4 3 2 2 1 1 1 2 3 3 4 5 5 6 6 7 7 7 7 8 9 9 9 9 9 9 10 11
6 6 6 6 6 7 7 7 7 7 7 7 7 7 6 5 4 2 2 2 1 2 2 3 4 5 6 6 7 7 8 8 8 8 9 9 10 10 11 11 11 12 13
6 7 6 6 6 6 7 7 7 7 7 8 7 7 6 5 4 3 2 2 2 2 3 3 4 5 6 7 8 8 8 9 10 10 10 10 11 12 13 13 14 15 16
6 7 7 7 7 7 7 8 8 8 8 8 7 7 7 6 5 4 3 4 4 4 4 4 5 6 7 7 8 9 9 9 10 11 12 13 13 14 15 16 17 18 19
6 7 7 7 7 7 8 8 9 9 8 8 8 8 8 7 6 6 5 5 5 6 6 6 6 7 7 8 9 9 10 11 11 13 14 15 16 16 17 19 20 21 22
6 7 7 7 7 7 8 8 8 8 8 8 8 9 9 9 8 7 7 7 7 7 7 7 8 8 9 10 11 12 13 14 15 15 17 18 19 20 21 22 23 24 25
6 7 7 7 7 8 8 9 8 9 9 9 9 10 10 9 9 9 8 8 8 8 8 9 10 11 12 12 13 14 15 16 17 18 19 20 21 22 23 24 25 26 27
7 7 8 8 8 8 8 9 9 10 10 10 11 11 11 11 11 11 11 10 10 10 11 11 12 14 14 15 16 16 17 18 19 20 21 23 24 25 26 26 27 28 29

GEFSGL_500_meanwind_156.txt.gz
Wind_Speed
27 27 27 27 27 25 24 24 24 25 25 25 25 25 25 25 24 24 25 25 24 24 24 23 23 22 23 23 24 24 24 24 24 23 24 24 24 23 23 23 22 23 23
26 27 28 28 27 26 25 25 25 25 25 25 25 24 24 23 23 22 23 24 24 24 24 23 22 22 23 22 23 23 23 24 23 23 23 24 24 23 23 23 23 23 23
25 26 26 26 26 26 25 24 24 24 24 24 24 24 23 23 22 22 23 23 24 24 23 23 22 22 22 22 22 22 22 23 23 23 22 23 24 23 23 23 23 23 23
23 24 24 24 24 24 23 22 23 22 23 23 23 23 23 22 22 22 22 23 23 23 22 22 21 21 21 21 21 21 21 21 22 22 22 22 23 23 23 23 23 22 23
22 22 22 22 21 21 21 21 21 21 22 22 22 22 23 23 22 22 22 22 22 21 21 21 21 21 22 22 21 21 20 20 21 21 21 21 22 22 22 22 21 21 21
21 20 20 20 19 19 19 20 20 21 21 21 22 22 22 22 22 21 21 21 21 20 20 21 21 21 21 21 21 21 21 20 21 21 21 21 20 20 21 20 20 20 19
18 18 17 17 18 18 18 19 19 19 19 20 20 21 21 21 21 20 21 20 20 20 20 20 20 20 20 20 20 19 19 19 20 20 20 19 20 20 20 20 20 20 19
17 16 15 16 16 17 17 17 17 17 18 18 19 18 18 18 19 19 19 19 19 19 20 19 19 19 19 19 19 18 18 19 20 20 20 19 19 19 19 19 18 18 17
16 15 14 14 14 14 14 14 15 15 15 16 16 16 16 17 18 18 17 17 18 18 18 18 17 17 17 17 17 18 18 18 19 19 19 19 19 19 18 18 18 18 17
14 13 12 12 12 12 13 13 13 13 14 14 14 14 14 15 16 16 16 16 16 16 16 16 16 15 15 14 14 15 16 17 17 17 18 18 18 17 17 17 17 17 16
13 12 12 12 11 12 12 12 12 12 12 13 13 12 12 13 13 14 14 14 14 14 14 14 14 13 12 13 13 13 13 14 15 15 16 16 16 16 16 16 16 16 16
12 11 11 11 10 11 11 11 11 11 12 12 11 11 11 11 11 12 12 12 12 12 12 11 11 11 11 11 11 11 11 11 12 12 13 13 13 14 14 14 15 15 15
11 10 9 9 9 9 10 10 10 11 11 11 11 11 11 11 11 11 11 11 10 10 10 10 9 9 9 10 9 9 10 10 10 10 11 11 11 12 12 12 13 13 13
10 8 8 8 8 9 9 10 10 10 11 11 11 11 11 11 11 11 10 10 9 9 9 8 8 7 8 8 8 8 8 9 9 9 9 10 10 10 11 11 11 12 12
8 7 8 8 8 9 10 11 11 11 12 11 12 12 11 11 11 11 10 9 9 7 6 7 7 7 7 6 7 7 7 7 7 8 9 10 10 10 10 11 11 11 11
8 7 8 9 9 10 10 11 12 12 12 12 12 12 12 12 11 11 10 9 8 7 7 6 7 6 6 6 6 7 7 7 7 7 8 9 9 10 10 11 11 12 12
8 8 9 9 9 10 11 11 11 11 12 12 12 12 12 11 11 11 9 8 8 7 7 7 7 6 5 5 5 6 6 7 7 7 8 8 9 10 10 11 11 12 13
7 8 8 9 9 10 10 10 10 10 11 12 12 12 12 12 11 10 9 8 8 8 7 7 7 6 5 5 5 6 7 7 8 8 8 9 9 10 11 12 12 13 14
7 8 8 8 9 10 10 11 11 10 11 11 11 12 12 12 11 10 10 9 8 7 7 7 8 7 6 6 6 6 7 8 9 9 10 10 11 12 13 14 15 15 16
7 7 8 9 9 10 11 11 11 10 11 11 11 12 12 13 12 11 10 9 9 8 8 9 9 8 8 8 9 9 10 10 11 11 12 12 12 13 14 15 16 16 17
7 8 8 9 10 11 11 11 11 11 11 11 11 12 12 13 12 11 10 10 9 9 9 9 9 9 9 10 10 11 12 12 12 12 13 13 14 15 15 16 17 18 19
7 8 9 9 10 11 11 11 11 12 12 12 12 12 13 12 12 12 12 11 11 11 11 11 11 11 11 11 11 12 12 13 14 14 14 15 15 16 17 18 19 20 21
8 9 9 9 10 11 11 12 12 13 13 13 13 13 13 13 13 13 14 13 13 12 12 12 12 13 13 13 14 14 15 15 16 16 17 18 18 18 19 20 21 22 23
8 9 10 10 11 11 12 13 13 14 14 14 14 14 14 15 15 15 15 15 14 14 14 14 14 14 15 16 16 17 17 18 18 19 19 20 20 21 22 23 24 25 25
9 9 10 11 11 12 13 13 14 14 14 15 15 15 15 15 15 16 16 16 16 16 16 16 17 17 17 18 18 19 19 20 20 21 22 22 23 24 25 25 26 27 28
9 10 10 11 11 12 13 13 13 14 15 15 15 16 16 16 16 17 18 18 18 18 18 18 19 19 19 20 21 22 22 22 22 23 23 24 24 25 27 27 28 28 29